User: anonymous   Login
Location: Fort Wayne
(41.1310°N, 85.1290°W)
Time: 18:52:44
(UTC-04:00)
Language:

BREEZE-M DEB (TANK) - Orbit

View from above orbital plane
View from above orbital plane
View from above satellite
View from above satellite

Ground track
Ground track

The orbit data is extracted from the following two-line orbital elements,

1 27821U 03024B   15105.84651110  .00011171  00000-0  14875-2 0  9995
2 27821 049.5824 261.2213 4984210 149.7624 359.5667 05.66329745235066
Epoch (UTC): 15 April 2015 20:18:58
Eccentricity: 0.4984210
inclination: 49.5824°
perigee height: 290 km
apogee height: 13543 km
right ascension of ascending node: 261.2213°
argument of perigee: 149.7624°
revolutions per day: 5.66329745
mean anomaly at epoch: 359.5667°
orbit number at epoch: 23506

The dashed part of the orbit path shows where the satellite is in the earth's shadow,  

DLR